Vertical_Velocity
1 3 -2 -1 -4 0 -7 -4 1 -5 -3 9 10 14 7 -2 3 -0 0 -1 -0 1 -0 -0 -1 1 1 1 -1 -1 -1 2 1 -2 -1 -0 -2 -1 -2 -1 -1 -1 -2 -1 -1 1 -1 -1 -1
5 -2 0 -3 -5 -7 8 -8 -0 -7 -3 6 -9 -21 20 0 1 -1 2 2 1 0 1 -0 1 1 0 2 0 -1 -0 -1 -2 0 -1 -1 -1 -1 -1 -1 -0 -1 -2 -2 1 2 1 -1 0
0 0 4 3 -6 5 -7 -3 -6 1 -4 6 -16 -9 7 -0 2 -1 -1 -0 2 -0 0 -1 0 -1 -1 1 0 -2 -1 -0 1 1 2 1 1 0 0 0 0 2 1 -1 1 1 1 1 1
-5 0 -6 -4 2 6 -1 2 5 -2 5 6 5 2 2 -2 1 3 -3 1 -1 -0 -0 -0 0 -1 -0 1 -0 -2 -1 1 0 -1 -0 1 1 3 1 1 1 -2 -1 -2 -1 1 1 0 -0
7 4 -7 -5 1 0 -1 -4 -3 -1 0 1 1 -7 5 -7 -7 2 -3 0 -2 -1 -1 1 -1 0 0 -1 -1 0 1 -1 -1 -1 -1 1 1 1 -0 -1 -1 1 0 -1 -1 1 1 0 2
-0 -3 -10 -1 2 -1 -1 -6 -7 -10 -5 0 -5 -0 -3 0 -4 -2 8 3 2 1 -0 2 -0 0 0 -0 -1 -0 0 -1 -0 -1 -1 1 1 -0 1 -0 -1 -2 -5 -1 -0 -1 1 1 -1
-7 -2 -8 2 -0 -2 6 11 2 -1 -6 -4 2 -6 -1 -4 -2 -1 7 3 1 -1 -2 2 0 -1 -0 -2 -0 0 -1 -1 0 -0 -1 -1 -2 -2 -1 1 0 1 0 -2 -0 0 1 1 -2
-3 0 -4 4 -3 -4 -6 -1 -4 3 -0 1 -4 1 0 -3 -0 -2 1 -1 1 1 1 -0 -1 -1 0 -0 2 -0 -0 -1 -2 -2 -1 -1 -2 -2 0 -1 0 1 -0 -1 -1 -1 0 -1 0
-0 4 4 2 -4 1 -6 -7 -4 3 -2 -0 2 1 -1 0 -6 5 2 -2 0 -1 2 1 0 -0 1 0 0 -1 2 -1 -0 -4 -3 -0 1 -2 -5 2 1 1 -1 -2 -1 -3 -3 -4 -4
5 -2 4 2 -4 -5 -4 -2 -5 0 1 -1 -2 2 -4 -3 -4 -0 5 3 -1 0 -0 2 3 2 -2 1 -1 -1 2 -0 -0 -0 -1 4 3 1 -4 -2 -1 2 1 -1 0 -2 -2 -2 -3
-1 0 -1 2 -0 -2 5 -10 1 -9 -5 -7 0 -1 -2 1 -4 -1 -2 3 5 1 -1 -4 -2 0 0 -1 1 -1 1 -1 0 1 2 -6 2 -4 -3 -1 5 -3 1 1 4 3 1 3 2
-1 0 2 -0 -3 -1 -4 0 3 2 1 -2 -0 -1 4 -0 2 0 1 -3 -1 -5 -2 3 2 -1 0 1 1 1 6 -4 1 2 8 -10 -2 -1 -0 1 -1 0 -1 3 0 1 1 3 -0
-2 0 1 -2 -2 -0 5 1 -5 7 0 -2 -2 -5 -5 -3 5 5 -1 -0 -0 3 0 -1 -3 -3 -1 3 0 -1 4 -4 1 -3 5 -3 -4 -2 -5 3 -4 -1 2 1 2 3 3 2 3
-1 3 1 1 -1 -2 -5 5 3 1 2 0 -2 0 0 -4 -0 1 -2 1 -4 1 -2 -2 -3 1 -1 1 -0 1 4 -2 -4 3 -0 -2 2 -1 7 -2 10 3 1 2 2 -2 0 -3 0
-0 0 -1 1 -5 1 -4 2 6 -7 -0 10 5 7 1 -2 -4 4 7 2 6 2 -6 1 -5 0 3 2 -0 -1 3 2 -1 4 -4 3 -1 3 -2 -4 2 4 7 8 -1 4 0 0 -1
1 23 -2 1 7 0 -3 -6 -10 -11 -2 13 2 -7 4 -3 -1 4 4 -3 -6 4 -2 1 1 -2 2 1 0 -2 -0 -1 -1 -1 -1 -1 -1 -1 1 -1 2 -3 -1 6 -1 3 -6 1 -11
3 -7 6 2 1 -3 -4 -4 9 -8 -0 -19 19 -3 -5 -3 -8 -5 -1 -2 -3 -5 3 -3 -0 -1 -1 2 -0 1 1 -0 2 2 -2 1 -1 1 5 3 -2 1 5 5 2 5 0 0 3
-0 -0 11 6 -3 -0 -7 -7 -12 -16 2 14 -10 32 -8 -12 -3 1 3 1 0 -2 -8 -6 -10 -2 -6 -1 4 2 2 -1 -1 1 -2 -4 -2 0 3 1 1 2 4 3 6 -4 -0 7 -8
3 -2 -3 5 12 -18 -9 0 -0 -4 21 -5 -36 27 41 -7 3 4 -3 -2 11 5 7 3 -1 1 -1 -3 3 2 2 0 1 2 -0 -1 -2 -0 3 2 1 -2 -2 2 4 7 0 0 3
-1 -4 -0 18 -7 -3 -12 -3 -7 -8 0 30 49 4 50 75 36 9 1 16 -14 8 -3 -4 3 1 3 -2 0 -0 1 2 -1 0 1 1 2 1 3 2 -0 1 3 -1 4 -2 1 4 5
2 5 2 15 -2 1 -17 -7 -2 -2 -8 -9 -9 7 -2 -26 -47 12 10 -13 13 15 11 1 1 -1 -2 3 -0 2 -2 -3 -3 -2 0 1 2 3 1 2 3 -1 -0 0 1 5 0 1 0
-3 12 23 6 13 6 -19 -11 -3 -8 -9 -4 -9 -11 4 -5 -1 3 -11 -2 -35 -3 8 -0 7 5 6 2 3 1 -0 -3 -1 -3 -2 1 -2 -1 0 -2 -1 2 -0 -2 -1 -5 -3 1 -1
2 -0 0 6 -2 -2 2 6 -1 -1 -4 1 -7 -9 -13 5 23 -3 -8 -16 14 19 14 13 6 7 5 2 3 2 0 -3 -1 -2 -0 -1 -2 -2 1 -0 2 -2 3 1 1 2 2 -1 0
6 0 -1 5 2 7 32 -2 4 -4 2 -7 -2 -6 -3 -6 1 -5 -16 7 -22 -16 -9 6 6 -7 13 2 3 2 1 0 -1 4 1 -1 2 2 1 -0 -0 -2 -1 2 1 5 2 2 -1
2 -3 4 -4 2 -8 3 -2 -0 -0 -3 2 -3 -15 -5 -7 2 -6 4 1 5 -0 -14 -20 7 -0 6 5 2 3 -0 -3 -2 -2 -2 2 3 -3 -3 40 -5 4 -4 -0 3 3 -1 -1 4
0 3 1 21 -10 37 -15 1 3 12 19 -6 -2 19 -3 -6 3 20 0 11 -8 -7 -1 32 18 -8 -1 4 3 3 -5 -1 -1 -4 -2 0 2 1 -1 -5 -2 2 -1 -2 -2 -1 2 4 3
4 -4 13 13 9 3 -0 35 -0 19 18 -0 0 1 0 3 2 4 8 2 20 -10 2 -1 -5 10 6 2 -1 -8 3 0 -1 -2 -1 -2 -2 -2 -0 2 3 2 4 -1 -1 1 1 2 -0
-3 8 4 7 9 5 5 3 7 10 -7 -22 -7 -5 -3 3 4 9 10 14 -0 -9 -7 -11 5 7 5 6 1 -2 -3 -6 -2 -2 -3 -2 1 -1 -1 1 13 -3 1 -1 -1 -2 3 4 -1
11 8 9 -7 1 12 3 1 -4 -4 -2 -14 10 -3 -5 -1 -0 -3 3 6 7 9 13 13 6 3 2 -3 -2 -4 -2 -0 -2 -2 -2 -4 0 -2 -1 2 -0 -3 2 -3 -3 -2 2 -2 -0
-7 -1 6 -9 -3 -3 1 -3 5 -17 -0 -2 -8 0 -4 -8 -6 3 2 -2 1 2 3 1 3 1 -0 -3 -5 -7 -1 -0 -3 0 0 2 16 4 -3 1 0 -0 -2 0 1 -1 -1 2 0
Height
5924 5924 5923 5923 5922 5918 5916 5917 5915 5913 5912 5911 5912 5912 5911 5909 5912 5912 5910 5909 5909 5911 5911 5911 5913 5913 5913 5912 5910 5909 5907 5903 5902 5901 5899 5899 5900 5901 5903 5904 5904 5905 5904 5905 5905 5905 5904 5904 5904
5927 5926 5926 5922 5921 5917 5916 5917 5920 5914 5914 5912 5911 5911 5913 5910 5910 5910 5911 5909 5909 5912 5912 5912 5914 5915 5915 5913 5912 5911 5909 5907 5905 5904 5902 5902 5902 5903 5904 5905 5907 5908 5907 5907 5907 5906 5905 5904 5905
5925 5926 5926 5924 5921 5921 5921 5920 5920 5918 5914 5911 5906 5912 5910 5910 5911 5910 5909 5910 5911 5912 5913 5913 5916 5917 5916 5914 5913 5912 5911 5911 5909 5907 5905 5904 5905 5906 5906 5907 5907 5908 5909 5909 5909 5909 5908 5906 5906
5928 5928 5924 5922 5925 5925 5923 5920 5922 5919 5918 5916 5912 5911 5912 5911 5911 5912 5910 5911 5911 5913 5913 5914 5917 5918 5917 5915 5914 5914 5914 5915 5913 5911 5909 5908 5907 5908 5908 5907 5908 5908 5910 5911 5911 5910 5909 5909 5909
5929 5928 5924 5925 5928 5926 5924 5922 5922 5920 5920 5916 5914 5910 5912 5909 5909 5912 5911 5911 5912 5913 5914 5915 5918 5918 5917 5916 5916 5916 5917 5916 5915 5914 5914 5913 5912 5910 5910 5910 5909 5909 5911 5913 5914 5913 5911 5910 5911
5930 5925 5925 5929 5930 5928 5926 5922 5920 5917 5918 5918 5917 5914 5912 5911 5909 5912 5915 5913 5913 5913 5914 5916 5918 5919 5917 5917 5917 5919 5918 5918 5917 5917 5916 5915 5915 5914 5913 5912 5912 5912 5912 5913 5915 5915 5914 5913 5913
5927 5928 5927 5930 5930 5929 5926 5924 5927 5922 5918 5917 5916 5913 5911 5909 5910 5912 5915 5914 5913 5913 5915 5916 5918 5919 5917 5918 5918 5919 5920 5919 5918 5918 5917 5915 5915 5915 5914 5915 5914 5914 5913 5913 5916 5917 5917 5916 5915
5930 5932 5928 5932 5931 5931 5927 5929 5926 5925 5921 5918 5916 5916 5913 5911 5912 5912 5913 5913 5913 5914 5915 5916 5917 5919 5918 5920 5920 5921 5921 5919 5918 5918 5918 5918 5916 5917 5914 5915 5917 5916 5915 5913 5916 5918 5919 5918 5917
5934 5937 5937 5937 5932 5931 5927 5926 5928 5926 5922 5920 5920 5917 5915 5913 5912 5915 5915 5913 5914 5915 5915 5916 5918 5921 5920 5922 5922 5923 5922 5919 5921 5922 5920 5920 5918 5919 5918 5918 5919 5920 5918 5916 5918 5919 5919 5920 5920
5939 5937 5938 5937 5934 5931 5928 5925 5927 5927 5924 5922 5920 5918 5915 5913 5913 5914 5916 5915 5914 5915 5915 5915 5919 5921 5921 5923 5924 5925 5924 5922 5923 5922 5922 5918 5919 5920 5920 5920 5921 5924 5923 5920 5919 5921 5920 5922 5923
5938 5937 5936 5937 5936 5933 5931 5924 5927 5924 5925 5923 5920 5918 5916 5915 5914 5913 5914 5915 5915 5914 5914 5914 5916 5920 5920 5923 5925 5926 5925 5925 5926 5923 5920 5920 5919 5919 5920 5922 5923 5924 5924 5922 5922 5924 5924 5923 5924
5937 5936 5937 5936 5935 5931 5932 5931 5929 5927 5925 5922 5920 5918 5918 5916 5915 5914 5914 5913 5913 5911 5913 5916 5917 5919 5920 5921 5924 5926 5926 5926 5928 5925 5923 5923 5919 5921 5923 5924 5923 5923 5924 5924 5925 5926 5926 5925 5924
5936 5938 5938 5936 5935 5932 5936 5933 5931 5931 5926 5924 5921 5919 5917 5916 5918 5916 5915 5914 5914 5913 5913 5915 5917 5920 5922 5922 5923 5926 5928 5928 5929 5927 5927 5925 5923 5926 5926 5925 5923 5924 5925 5926 5928 5928 5927 5926 5927
5937 5939 5938 5938 5935 5933 5935 5935 5931 5930 5928 5926 5924 5923 5920 5918 5917 5917 5916 5915 5913 5914 5911 5912 5915 5920 5922 5924 5924 5927 5929 5930 5930 5930 5931 5929 5926 5928 5926 5924 5926 5929 5929 5928 5928 5929 5929 5929 5928
5936 5937 5937 5939 5934 5936 5934 5935 5933 5927 5927 5927 5926 5924 5921 5918 5916 5918 5919 5916 5914 5913 5911 5910 5914 5917 5921 5925 5925 5926 5930 5932 5930 5930 5932 5934 5930 5929 5927 5929 5932 5933 5930 5928 5928 5930 5930 5930 5931
5938 5940 5938 5940 5940 5936 5932 5933 5929 5926 5923 5921 5923 5919 5920 5919 5918 5917 5917 5915 5911 5912 5912 5911 5913 5918 5921 5923 5924 5925 5930 5931 5931 5931 5933 5934 5935 5933 5934 5934 5936 5936 5933 5932 5930 5929 5928 5930 5930
5936 5937 5941 5940 5939 5937 5934 5932 5931 5924 5920 5920 5922 5918 5919 5920 5919 5917 5917 5917 5913 5910 5913 5915 5916 5919 5922 5924 5925 5927 5929 5931 5932 5933 5934 5934 5936 5938 5938 5937 5936 5937 5936 5934 5933 5931 5931 5932 5932
5939 5940 5943 5941 5939 5937 5933 5933 5929 5921 5924 5924 5923 5920 5916 5917 5918 5916 5916 5918 5918 5915 5914 5914 5917 5920 5921 5923 5925 5928 5929 5931 5933 5933 5933 5934 5934 5936 5938 5938 5938 5937 5935 5935 5936 5931 5931 5933 5932
5938 5939 5944 5942 5940 5934 5933 5935 5933 5927 5924 5916 5910 5914 5922 5916 5918 5917 5917 5915 5916 5919 5920 5918 5917 5917 5921 5925 5928 5929 5930 5932 5933 5934 5932 5933 5932 5933 5934 5937 5937 5936 5933 5933 5937 5938 5935 5935 5935
5937 5941 5943 5942 5935 5933 5933 5934 5932 5931 5927 5926 5920 5893 5919 5907 5913 5920 5918 5920 5919 5920 5919 5918 5918 5921 5924 5926 5927 5929 5930 5930 5931 5931 5932 5932 5932 5932 5933 5934 5934 5935 5934 5932 5934 5936 5938 5939 5937
5937 5940 5942 5941 5935 5933 5933 5932 5932 5932 5929 5926 5924 5918 5918 5911 5904 5920 5922 5919 5923 5924 5925 5924 5921 5922 5923 5925 5926 5927 5926 5927 5928 5928 5929 5931 5932 5932 5932 5932 5933 5932 5932 5932 5932 5933 5934 5936 5936
5935 5939 5941 5938 5937 5934 5932 5928 5930 5932 5927 5927 5926 5921 5918 5920 5926 5925 5923 5921 5917 5923 5925 5926 5926 5925 5925 5926 5926 5925 5925 5924 5925 5926 5926 5926 5928 5929 5929 5929 5929 5930 5929 5930 5929 5928 5929 5931 5931
5933 5933 5933 5934 5933 5933 5931 5930 5928 5931 5932 5931 5929 5923 5920 5922 5922 5921 5921 5924 5920 5923 5922 5927 5927 5925 5926 5926 5926 5925 5925 5926 5925 5924 5924 5924 5925 5926 5926 5926 5926 5926 5927 5926 5927 5927 5926 5926 5928
5930 5929 5929 5932 5931 5931 5930 5929 5929 5929 5929 5927 5926 5924 5924 5919 5916 5918 5921 5923 5924 5927 5922 5923 5927 5927 5927 5926 5925 5924 5923 5923 5923 5923 5923 5921 5920 5922 5923 5922 5922 5921 5923 5924 5923 5924 5924 5922 5922
5926 5926 5928 5928 5927 5923 5921 5919 5923 5925 5924 5925 5923 5924 5925 5925 5919 5916 5917 5918 5925 5926 5920 5918 5928 5928 5925 5925 5924 5924 5923 5923 5921 5920 5920 5920 5918 5918 5919 5912 5918 5917 5918 5919 5919 5919 5919 5919 5918
5923 5925 5925 5924 5921 5917 5908 5909 5914 5914 5914 5918 5921 5921 5923 5925 5924 5920 5918 5916 5915 5914 5916 5920 5923 5927 5925 5924 5922 5920 5919 5919 5919 5919 5919 5917 5916 5916 5916 5914 5914 5914 5914 5914 5915 5915 5914 5915 5914
5922 5922 5922 5919 5916 5912 5905 5905 5912 5911 5908 5913 5916 5919 5919 5922 5924 5923 5918 5919 5919 5917 5916 5917 5920 5920 5920 5919 5918 5917 5916 5915 5915 5914 5915 5914 5913 5912 5912 5911 5909 5908 5909 5909 5910 5911 5911 5911 5909
5918 5920 5918 5918 5915 5912 5911 5911 5910 5908 5908 5909 5911 5914 5915 5917 5920 5920 5918 5916 5915 5915 5915 5914 5913 5912 5912 5912 5911 5911 5910 5910 5910 5909 5909 5909 5908 5907 5906 5904 5904 5903 5903 5903 5904 5905 5904 5904 5904
5915 5915 5914 5915 5915 5910 5907 5906 5904 5903 5904 5906 5910 5913 5915 5913 5914 5915 5915 5914 5911 5909 5909 5908 5907 5905 5904 5903 5903 5902 5903 5902 5902 5902 5901 5900 5900 5899 5900 5898 5897 5896 5896 5895 5897 5899 5897 5896 5895
5907 5909 5910 5909 5910 5906 5902 5903 5901 5903 5905 5903 5906 5907 5910 5910 5908 5910 5910 5908 5906 5904 5903 5901 5900 5898 5896 5895 5894 5892 5892 5892 5892 5891 5891 5890 5887 5889 5890 5890 5890 5890 5890 5889 5889 5889 5889 5891 5890